Find Starlink 3953

NORAD ID: 52559 Int'l Des: 2022-051 Owner: SPXS Country: US Constellation: starlink operational
LEOCIRCULAR

当前视图

正在加载3D地球...

About Starlink 3953

Starlink 3953 (NORAD 52559) is a starlink constellation satellite (v1.5) launched May 13, 2022 by SPXS of US. It operates in LEO, CIRCULAR orbit with a mass of 297.00 kg.

即将过境

Passes for default location (London). Set your location on the main map for personalized predictions.

高度历史

Loading altitude history...

两行轨道根数

1 52559U 22051AC 26265.60214516 .00002348 00000-0 78142-4 0 9995
2 52559 53.1615 307.7223 0001134 65.3625 294.7496 15.35417558241405
Epoch: Sep 22, 2026 • Age: 14 hours

当前状态

高度 466.4 km
远地点 / 近地点 N/A
速度 7.63 km/s
星下点 -23.23°S, 141.44°W
发射日期 May 13, 2022
运行时间 4.3 years
类型 internet

技术详情

分类 Payload
质量 297.00 kg
干质量 275.00 kg
长度 0.20 m
跨度 9.00 m
形状 ? Box + pan
制造商 SPXS
平台类型 Starlink
阶段状态 In Orbit
所有者/国家 SPXS/US

Most Searched